[[{"header":{"parameterUnit":"m.s-1","parameterCategory":1,"la1":30.2991,"la2":30.254,"lo1":-89.0895,"lo2":-89.0444,"dy":0.0017,"dx":0.0017,"nx":28,"ny":28,"refTime":"2025-03-30T21:00:00:Z","depth":0,"parameterNumber":2,"parameterNumberName":"U-component_of_WINDS"},"data":[0,0,0,0,0,0,0,0,0,0,0,0,0,0,0,0,0,0,0,0,0,0,0,0,0,0,0,0,0,0,0,0,0,0,0,0,0,0,0,0,0,0,0,0,0,0,0,0,0,0,0,0,0,0,0,0,0,0,-3.618,-3.618,0,-3.6195,-3.6195,-3.6196,-3.61,-3.6098,-3.6095,-3.6092,-3.6111,-3.6114,-3.6117,0,0,0,0,0,0,0,0,0,0,0,0,0,-3.6073,-3.6075,-3.618,-3.618,-3.618,-3.6195,-3.6195,-3.6196,-3.6101,-3.6098,-3.6094,-3.6091,-3.611,-3.6113,-3.6117,0,0,0,0,0,0,0,0,0,0,0,0,0,-3.6107,-3.6076,-3.618,-3.6135,-3.6131,-3.6195,-3.6195,-3.6196,-3.6102,-3.6098,-3.6093,-3.609,-3.6108,-3.6113,-3.6117,-3.6226,0,0,-3.6131,-3.6133,0,0,0,0,0,0,0,0,-3.6105,-3.6111,-3.6141,-3.6138,-3.6134,-3.6142,-3.6164,-3.6206,-3.6103,-3.6113,-3.6092,-3.6088,-3.6124,-3.6127,-3.6139,-3.6227,-3.6228,-3.6131,-3.6134,-3.6136,-3.6137,0,0,0,0,0,0,0,-3.6103,-3.611,-3.6186,-3.6142,-3.6137,-3.6115,-3.6115,-3.6172,-3.6141,-3.6112,-3.6105,-3.6108,-3.6122,-3.6135,-3.6139,-3.6228,-3.6131,-3.6135,-3.6138,-3.614,-3.6408,-3.6412,0,0,0,0,0,0,-3.6106,-3.6108,-3.6185,-3.6186,-3.6109,-3.612,-3.6121,-3.6143,-3.614,-3.6136,-3.6111,-3.6103,-3.6129,-3.6134,-3.6139,-3.6266,-3.6136,-3.614,-3.6143,-3.6404,-3.6409,-3.6414,0,0,0,0,0,0,-3.6104,-3.6114,-3.6185,-3.6146,-3.6153,-3.6126,-3.6153,-3.6146,-3.6159,-3.614,-3.6134,-3.613,-3.6126,-3.6133,-3.6205,-3.6265,-3.6142,-3.6146,-3.6398,-3.6405,-3.6411,-3.6521,0,0,0,0,0,0,-3.6101,-3.6114,-3.6153,-3.6147,-3.6155,-3.625,-3.6156,-3.6149,-3.6167,-3.6156,-3.6156,-3.6152,-3.6124,-3.6199,-3.621,-3.6269,-3.615,-3.6393,-3.6401,-3.6409,-3.6512,-3.6531,-3.6547,0,0,0,0,0,-3.6098,-3.6184,-3.6156,-3.6166,-3.6204,-3.6253,-3.6258,-3.6222,-3.6172,-3.6212,-3.6201,-3.6152,-3.6258,-3.6208,-3.6219,-3.628,-3.6389,-3.6399,-3.6409,-3.6504,-3.6527,-3.6546,0,0,0,0,0,0,-3.6198,-3.6182,-3.6151,-3.6237,-3.6247,-3.6237,-3.6286,-3.6248,-3.6273,-3.6262,-3.6218,-3.6219,-3.6299,-3.6298,-3.6241,-3.6387,-3.6315,-3.6328,-3.6384,-3.6405,-3.6422,-3.6419,-3.6154,0,0,0,0,0,-3.623,-3.627,-3.6255,-3.6333,-3.6339,-3.6313,-3.6333,-3.6305,-3.6314,-3.6317,-3.6311,-3.6322,-3.6358,-3.6382,-3.6414,-3.6513,-3.6512,-3.6561,-3.6579,-3.6593,-3.6603,-3.6656,-3.6678,-3.6446,-3.6446,-3.6446,0,0,-3.6296,-3.6293,-3.6321,-3.6353,-3.6357,-3.64,-3.6317,-3.6366,-3.6397,-3.6325,-3.6392,-3.6389,-3.6399,-3.6485,-3.6523,-3.6486,-3.6668,-3.6606,-3.6617,-3.662,-3.6668,-3.669,-3.671,-3.6453,-3.6452,-3.6451,0,0,-3.6439,-3.6441,-3.6505,-3.6512,-3.652,-3.6503,-3.6519,-3.6516,-3.651,-3.6577,-3.6524,-3.6563,-3.6625,-3.6635,-3.6648,-3.6799,-3.6755,-3.6811,-3.69,-3.6952,-3.697,-3.6986,-3.7038,-3.7058,-3.6822,-3.6822,-3.6823,0,-3.652,-3.6581,-3.6544,-3.6597,-3.6613,-3.6551,-3.6616,-3.6625,-3.6644,-3.6657,-3.6617,-3.6695,-3.6697,-3.6785,-3.6822,-3.6835,-3.6852,-3.6808,-3.697,-3.6986,-3.7,-3.7049,-3.7069,-3.6829,-3.6828,-3.6827,-3.6827,0,-3.6681,-3.6725,-3.6777,-3.6796,-3.6818,-3.6878,-3.6851,-3.6878,-3.6851,-3.6838,-3.6908,-3.691,-3.6941,-3.6961,-3.6934,-3.7046,-3.7023,-3.6978,-3.6903,-3.7029,-3.7075,-3.7093,-3.6838,-3.6836,-3.6834,-3.6832,0,0,-3.6881,-3.6881,-3.6901,-3.6909,-3.6916,-3.6949,-3.7008,-3.7038,-3.7062,-3.708,-3.7127,-3.7183,-3.7142,-3.7157,-3.7131,-3.7177,-3.7296,-3.7126,-3.7126,-3.7155,-3.7418,-3.7449,-3.7472,-3.7269,-3.7273,-3.7275,-3.7416,0,-3.7018,-3.7115,-3.7085,-3.7183,-3.7223,-3.7168,-3.7218,-3.7229,-3.722,-3.7255,-3.7246,-3.7285,-3.7229,-3.7237,-3.7281,-3.7272,-3.7347,-3.7262,-3.7312,-3.7314,-3.7307,-3.7496,-3.7529,-3.7661,-3.7434,-3.7437,-3.7439,0,-3.719,-3.7213,-3.7315,-3.7316,-3.7332,-3.7378,-3.7404,-3.7438,-3.745,-3.7441,-3.746,-3.7425,-3.7484,-3.7414,-3.7494,-3.7437,-3.7457,-3.7457,-3.7461,-3.7461,-3.7381,-3.7498,-3.7703,-3.7722,-3.7468,-3.7465,-3.7463,0,-3.7323,-3.738,-3.7448,-3.7458,-3.7461,-3.7495,-3.7498,-3.7506,-3.7527,-3.7552,-3.7565,-3.7597,-3.7613,-3.764,-3.7616,-3.7567,-3.77,-3.7628,-3.7693,-3.7694,-3.7719,-3.7717,-3.7927,-3.7739,-3.7739,-3.7738,-3.7738,0,-3.7476,-3.754,-3.7508,-3.755,-3.7621,-3.7588,-3.766,-3.7657,-3.7665,-3.7707,-3.7663,-3.7702,-3.767,-3.7708,-3.7691,-3.776,-3.7768,-3.7762,-3.7756,-3.7764,-3.7764,-3.7773,-3.7762,-3.7744,-3.7742,-3.7741,-3.774,0,-3.7634,-3.7616,-3.7686,-3.7685,-3.7686,-3.7739,-3.7738,-3.7777,-3.7768,-3.7821,-3.7831,-3.7816,-3.7858,-3.7838,-3.7883,-3.7872,-3.796,-3.7943,-3.7955,-3.7949,-3.8015,-3.8008,-3.8234,-3.8261,-3.8059,-3.8061,-3.8063,0,-3.7732,-3.7779,-3.7784,-3.7808,-3.7815,-3.7855,-3.7876,-3.7847,-3.7872,-3.7891,-3.7928,-3.7967,-3.7996,-3.8067,-3.8061,-3.8095,-3.8077,-3.8155,-3.8082,-3.8089,-3.8075,-3.8071,-3.8075,-3.8167,-3.817,-3.8172,-3.8173,0,-3.7906,-3.7895,-3.7926,-3.7956,-3.7983,-3.8005,-3.8024,-3.8047,-3.8019,-3.805,-3.8092,-3.8115,-3.8162,-3.8201,-3.8232,-3.8237,-3.8201,-3.8197,-3.8214,-3.822,-3.8224,-3.822,-3.7991,-3.8191,-3.8189,-3.8188,-3.8187,-3.8186,-3.8034,-3.8074,-3.8084,-3.8121,-3.8133,-3.8152,-3.8189,-3.8185,-3.8219,-3.8254,-3.8236,-3.8286,-3.83,-3.8338,-3.8349,-3.8388,-3.8358,-3.8382,-3.8388,-3.8393,-3.8401,-3.8221,-3.8395,-3.8394,-3.8394,-3.8393,-3.8393,0,-3.8203,-3.8207,-3.8243,-3.827,-3.8301,-3.8266,-3.8286,-3.8313,-3.8358,-3.8374,-3.8404,-3.8454,-3.8493,-3.8491,-3.8527,-3.8559,-3.8544,-3.857,-3.8565,-3.8566,-3.8427,-3.8408,-3.8581,-3.8581,-3.8581,-3.8581,-3.8581,-3.8581,-3.8294,-3.836,-3.8351,-3.8423,-3.8428,-3.8475,-3.849,-3.8508,-3.852,-3.8578,-3.861,-3.8609,-3.8618,-3.8655,-3.869,-3.8688,-3.8703,-3.8734,-3.8726,-3.8595,-3.8576,-3.8558,-3.854,-3.8738,-3.8738,-3.8862,-3.8863,-3.8864]},{"header":{"parameterUnit":"m.s-1","parameterCategory":1,"la1":30.2991,"la2":30.254,"lo1":-89.0895,"lo2":-89.0444,"dy":0.0017,"dx":0.0017,"nx":28,"ny":28,"refTime":"2025-03-30T21:00:00:Z","depth":0,"parameterNumber":3,"parameterNumberName":"V-component_of_WINDS"},"data":[0,0,0,0,0,0,0,0,0,0,0,0,0,0,0,0,0,0,0,0,0,0,0,0,0,0,0,0,0,0,0,0,0,0,0,0,0,0,0,0,0,0,0,0,0,0,0,0,0,0,0,0,0,0,0,0,0,0,1.4147,1.4147,0,1.4155,1.4155,1.4155,1.4172,1.4173,1.4173,1.4173,1.4177,1.4177,1.4177,0,0,0,0,0,0,0,0,0,0,0,0,0,1.4144,1.4144,1.4147,1.4147,1.4147,1.4155,1.4155,1.4155,1.4172,1.4173,1.4173,1.4174,1.4177,1.4177,1.4177,0,0,0,0,0,0,0,0,0,0,0,0,0,1.4148,1.4144,1.4147,1.4157,1.4158,1.4155,1.4155,1.4156,1.4172,1.4173,1.4173,1.4174,1.4178,1.4177,1.4177,1.4164,0,0,1.4176,1.4176,0,0,0,0,0,0,0,0,1.4148,1.4148,1.4155,1.4156,1.4157,1.4164,1.4156,1.4158,1.4172,1.4167,1.4173,1.4174,1.4172,1.4172,1.4172,1.4164,1.4165,1.4176,1.4176,1.4175,1.4175,0,0,0,0,0,0,0,1.4147,1.4148,1.415,1.4155,1.4157,1.416,1.4161,1.4156,1.4166,1.4167,1.4168,1.4169,1.4173,1.4173,1.4173,1.4165,1.4176,1.4176,1.4175,1.4175,1.4148,1.4148,0,0,0,0,0,0,1.4146,1.4147,1.415,1.4151,1.4154,1.416,1.4161,1.4161,1.4166,1.4168,1.4169,1.417,1.4173,1.4173,1.4173,1.4159,1.4175,1.4175,1.4175,1.4149,1.4148,1.4148,0,0,0,0,0,0,1.4146,1.4146,1.415,1.4149,1.415,1.4159,1.4159,1.4161,1.4161,1.4168,1.4169,1.4167,1.4173,1.4173,1.4167,1.416,1.4175,1.4175,1.4149,1.4149,1.4148,1.4132,0,0,0,0,0,0,1.4146,1.4146,1.4142,1.4149,1.415,1.4144,1.4159,1.4161,1.4161,1.4162,1.4167,1.4168,1.4174,1.4167,1.4167,1.416,1.4174,1.415,1.4149,1.4148,1.4133,1.4131,1.4129,0,0,0,0,0,1.4146,1.4136,1.4141,1.4142,1.4145,1.4144,1.4144,1.4153,1.416,1.4156,1.416,1.4168,1.4161,1.4167,1.4166,1.4159,1.415,1.4149,1.4148,1.4134,1.4131,1.4129,0,0,0,0,0,0,1.4125,1.4137,1.4143,1.4136,1.4139,1.4147,1.4141,1.4149,1.4149,1.4151,1.416,1.4161,1.4153,1.4155,1.4161,1.4147,1.4157,1.4155,1.4146,1.4144,1.4141,1.4141,1.4174,0,0,0,0,0,1.412,1.4119,1.4129,1.4121,1.4123,1.4132,1.4131,1.4138,1.4141,1.4142,1.4146,1.4148,1.4147,1.4145,1.4144,1.4134,1.4135,1.4128,1.4126,1.4124,1.4123,1.4119,1.4116,1.4144,1.4144,1.4144,0,0,1.4108,1.4115,1.4113,1.4117,1.412,1.4119,1.4133,1.413,1.4129,1.4141,1.4136,1.4139,1.4142,1.4134,1.4131,1.4136,1.4116,1.4123,1.4121,1.4121,1.4117,1.4115,1.4112,1.4143,1.4143,1.4143,0,0,1.4087,1.4092,1.4087,1.4091,1.4097,1.4103,1.4102,1.4109,1.4112,1.4108,1.4118,1.4116,1.4113,1.4115,1.4115,1.4098,1.4105,1.4097,1.4085,1.4081,1.4079,1.4077,1.4071,1.4069,1.4096,1.4095,1.4095,0,1.4072,1.4071,1.4083,1.408,1.4082,1.4096,1.409,1.4093,1.4097,1.4098,1.4103,1.4101,1.4104,1.4097,1.4093,1.4093,1.4092,1.4096,1.4078,1.4077,1.4075,1.407,1.4067,1.4095,1.4095,1.4095,1.4095,0,1.4053,1.4052,1.4047,1.4054,1.4055,1.405,1.4061,1.406,1.4067,1.4073,1.4069,1.4073,1.4074,1.4072,1.4078,1.4067,1.407,1.4077,1.4087,1.4071,1.4066,1.4064,1.4093,1.4094,1.4094,1.4094,0,0,1.4018,1.4032,1.403,1.4034,1.4042,1.4041,1.4038,1.4041,1.4041,1.4043,1.4041,1.4039,1.4047,1.4047,1.4053,1.405,1.4037,1.4057,1.4058,1.4054,1.4026,1.4021,1.4018,1.4042,1.4041,1.4041,1.4026,0,1.3999,1.3995,1.4007,1.4,1.4,1.4014,1.4011,1.4016,1.4022,1.4022,1.4027,1.4026,1.4036,1.4036,1.4034,1.4039,1.4031,1.404,1.4039,1.4039,1.4038,1.4015,1.401,1.3995,1.4024,1.4023,1.4023,0,1.3975,1.398,1.3974,1.3985,1.3985,1.3982,1.3987,1.3987,1.3992,1.3997,1.3999,1.4007,1.4004,1.4014,1.4011,1.4017,1.4017,1.402,1.4019,1.4019,1.403,1.4015,1.399,1.3988,1.402,1.402,1.4021,0,1.3951,1.3955,1.3953,1.3956,1.3967,1.3966,1.397,1.3977,1.3978,1.3981,1.3982,1.3984,1.3986,1.3987,1.3996,1.4002,1.3991,1.4001,1.3995,1.3994,1.3991,1.3991,1.3966,1.3991,1.3991,1.3991,1.3991,0,1.3929,1.3925,1.3943,1.3941,1.3937,1.395,1.3945,1.3951,1.3957,1.3957,1.3968,1.3967,1.3979,1.3979,1.3986,1.3982,1.3982,1.3986,1.3988,1.3985,1.3985,1.3985,1.3986,1.3991,1.3991,1.3991,1.3991,0,1.3901,1.3913,1.3911,1.3924,1.3927,1.3923,1.3933,1.3932,1.394,1.3939,1.3939,1.395,1.3952,1.3961,1.3963,1.3967,1.3962,1.3965,1.396,1.3962,1.3955,1.3955,1.3929,1.3927,1.3953,1.3952,1.3952,0,1.3886,1.3884,1.3897,1.3898,1.3903,1.3905,1.3907,1.392,1.3921,1.3929,1.3927,1.3929,1.3932,1.3933,1.3941,1.3943,1.3947,1.3937,1.3947,1.3945,1.3947,1.3947,1.3948,1.3935,1.3935,1.3935,1.3934,0,1.3858,1.3865,1.3869,1.3875,1.3878,1.3882,1.3888,1.3888,1.3902,1.3903,1.3906,1.3908,1.3912,1.3914,1.3918,1.3922,1.3931,1.3932,1.393,1.3927,1.3925,1.3927,1.3955,1.3932,1.3932,1.3932,1.3932,1.3933,1.3837,1.3836,1.3846,1.385,1.3856,1.3861,1.3861,1.387,1.3873,1.3878,1.3885,1.3887,1.3893,1.39,1.3904,1.3905,1.3909,1.3907,1.3907,1.3906,1.3905,1.3925,1.3905,1.3905,1.3905,1.3906,1.3906,0,1.3811,1.3818,1.3822,1.383,1.3834,1.3843,1.385,1.3852,1.3854,1.386,1.3864,1.3867,1.387,1.3878,1.3882,1.3881,1.3885,1.3882,1.3882,1.3883,1.39,1.3901,1.3879,1.3879,1.3879,1.3879,1.3879,1.3879,1.3797,1.3797,1.3805,1.3808,1.3815,1.3818,1.3822,1.3827,1.3832,1.3836,1.3839,1.3846,1.3853,1.3858,1.3861,1.3864,1.3864,1.386,1.3863,1.3879,1.3882,1.3884,1.3885,1.386,1.386,1.3846,1.3846,1.3846]}]]